User: anonymous   Login
Location: *
(34.8620°S, 39.3380°E)
Time: 23:48:50
(UTC+00:00)
Language:

CENTAUR R/B - Orbit

View from above orbital plane
View from above orbital plane
View from above satellite
View from above satellite

Ground track
Ground track

The orbit data is extracted from the following two-line orbital elements,

1 26906U 01040B   21297.73623149 0.00000040  00000-0  33626-4 0    05
2 26906  63.4511 210.4807 0487682 339.1708  20.8292 13.44088848    04
Epoch (UTC): 24 October 2021 17:40:10
Eccentricity: 0.0487682
inclination: 63.4511°
perigee height: 729 km
apogee height: 1458 km
right ascension of ascending node: 210.4807°
argument of perigee: 339.1708°
revolutions per day: 13.44088848
mean anomaly at epoch: 20.8292°
orbit number at epoch: 0

The dashed part of the orbit path shows where the satellite is in the earth's shadow,  

DLR